This is the latest recevied weather packets stored in our database for station/object N2MLB-WX. If no packets are shown the sender has not sent any weather packets the latest 10 day(s).
| Time | Temp. | Humidity | Pressure | Rain* | Wind** | Luminosity | Snow |
|---|---|---|---|---|---|---|---|
| 1777602439 | 6.67° C | 87% | 1009 hPa | 0.76 mm | - | 0 W/m² | - |
| 1777602139 | 6.67° C | 89% | 1009 hPa | 1.27 mm | - | 0 W/m² | - |
| 1777601841 | 6.67° C | 87% | 1009 hPa | 2.54 mm | - | 0 W/m² | - |
| 1777601539 | 6.67° C | 87% | 1009 hPa | 0 mm | - | 0 W/m² | - |
| 1777601241 | 6.67° C | 86% | 1009 hPa | 0 mm | - | 0 W/m² | - |
| 1777600940 | 6.67° C | 84% | 1009 hPa | 0 mm | - | 0 W/m² | - |
| 1777600640 | 6.67° C | 86% | 1009 hPa | 0 mm | - | 0 W/m² | - |
| 1777600341 | 6.67° C | 89% | 1009 hPa | 0 mm | - | 0 W/m² | - |
| 1777600039 | 6.67° C | 88% | 1009 hPa | 0 mm | - | 0 W/m² | - |
| 1777599740 | 6.67° C | 90% | 1009 hPa | 0 mm | - | 0 W/m² | - |
| 1777599440 | 6.67° C | 90% | 1009 hPa | 0 mm | - | 0 W/m² | - |
| 1777599139 | 6.67° C | 89% | 1009 hPa | 0 mm | - | 0 W/m² | - |
| 1777598840 | 6.67° C | 89% | 1009 hPa | 0 mm | - | 0 W/m² | - |
| 1777598540 | 6.67° C | 89% | 1009 hPa | 0 mm | - | 0 W/m² | - |
| 1777598239 | 6.67° C | 90% | 1009 hPa | 0 mm | - | 0 W/m² | - |
| 1777597940 | 6.67° C | 89% | 1009 hPa | 0 mm | - | 0 W/m² | - |
| 1777597643 | 6.67° C | 89% | 1009 hPa | 0 mm | - | 0 W/m² | - |
| 1777597339 | 6.67° C | 90% | 1009 hPa | 0.25 mm | - | 0 W/m² | - |
| 1777597040 | 6.67° C | 89% | 1008 hPa | 0.25 mm | - | 0 W/m² | - |
| 1777596739 | 6.67° C | 90% | 1008 hPa | 0.51 mm | - | 0 W/m² | - |
| 1777596440 | 6.67° C | 91% | 1008 hPa | 1.02 mm | - | 0 W/m² | - |
| 1777596140 | 6.67° C | 90% | 1008 hPa | 1.52 mm | - | 0 W/m² | - |
| 1777595841 | 6.67° C | 90% | 1008 hPa | 12.7 mm | - | 0 W/m² | - |
| 1777595539 | 6.67° C | 88% | 1008 hPa | 0 mm | - | 0 W/m² | - |
| 1777595239 | 6.67° C | 87% | 1008 hPa | 0 mm | - | 0 W/m² | - |
* Rain latest hour (hover to see other rain measurements)
** Current wind speed in m/s (hover to see current wind gust speed)